Date,TemperatureHighF,TemperatureAvgF,TemperatureLowF,DewpointHighF,DewpointAvgF,DewpointLowF,HumidityHigh,HumidityAvg,HumidityLow,PressureMaxIn,PressureMinIn,WindSpeedMaxMPH,WindSpeedAvgMPH,GustSpeedMaxMPH,PrecipitationSumIn
2013-2-1,16,11,6,13,6,2,88,78,68,30.43,29.96,11,6,30,0.00
2013-2-2,24,17,4,23,14,2,95,89,83,30.42,30.06,6,2,13,0.00
2013-2-3,24,19,9,22,15,7,92,85,74,30.15,29.96,8,3,13,0.00
2013-2-4,28,19,6,27,17,4,97,92,82,30.17,29.92,5,1,13,0.00
2013-2-5,30,27,24,27,24,21,97,90,73,30.03,29.92,5,2,10,0.00
2013-2-6,34,27,16,28,21,12,93,78,54,30.36,30.03,7,3,12,0.00
2013-2-7,46,32,15,32,25,13,93,76,54,30.33,29.91,5,1,9,0.01
2013-2-8,42,32,24,38,29,19,97,86,79,30.34,29.81,14,7,22,0.18
2013-2-9,35,25,20,21,19,16,92,77,56,30.50,30.34,9,2,22,0.00
2013-2-10,46,37,19,41,27,16,88,69,50,30.37,29.90,8,3,12,0.00
2013-2-11,51,43,35,47,37,27,99,79,61,29.99,29.76,14,8,25,0.01
2013-2-12,44,34,27,30,26,24,90,76,54,30.15,29.96,13,4,25,0.00
2013-2-13,32,28,22,28,26,21,97,90,84,29.97,29.78,7,2,11,0.00
2013-2-14,40,33,23,37,31,22,98,94,83,30.00,29.88,12,3,18,0.01
2013-2-15,34,30,28,30,27,25,95,88,80,30.13,29.99,8,1,16,0.00
2013-2-16,18,17,14,15,12,8,89,82,75,30.11,30.10,10,7,17,0.00
2013-2-17,22,15,9,14,10,7,90,80,61,30.34,30.11,9,5,17,0.00
2013-2-18,48,30,8,35,20,6,92,70,53,30.35,29.83,9,4,17,0.00
2013-2-19,47,30,17,39,27,13,98,87,62,30.08,29.68,13,8,29,0.16
2013-2-20,20,18,16,17,13,10,90,81,72,30.34,30.08,11,6,23,0.00
2013-2-21,26,22,19,19,16,13,88,80,72,30.44,30.30,7,3,18,0.00
2013-2-22,41,31,22,38,28,17,99,90,80,30.31,29.99,8,3,14,0.01
2013-2-23,39,33,27,32,29,24,96,84,66,30.04,29.93,8,2,18,0.00
2013-2-24,32,28,25,26,23,21,91,81,67,30.21,29.96,8,4,16,0.00
2013-2-25,45,31,19,29,24,18,98,77,49,30.28,30.07,5,1,16,0.00
2013-2-26,40,35,29,40,32,24,99,89,72,30.08,29.53,7,3,11,0.90
2013-2-27,42,37,32,41,36,30,99,95,88,29.71,29.53,8,4,15,0.30
2013-2-28,35,32,31,34,31,29,98,94,88,29.95,29.66,10,5,18,0.01